Weather History for Greenville Downtown, SC

Change the Weather History Date:

Sunday, January 29, 2012

  Actual Average Record
Temperature  
Mean Temperature 44 °F -  
Max Temperature 55 °F 50 °F 77 °F (2002)
Min Temperature 32 °F 33 °F 17 °F (2007)
Degree Days  
Heating Degree Days 22    
Moisture  
Dew Point 13 °F    
Average Humidity 32    
Maximum Humidity 56    
Minimum Humidity 14    
Precipitation  
Precipitation 0.00 in - - ()
Sea Level Pressure  
Sea Level Pressure 30.33 in    
Wind  
Wind Speed 7 mph (West)    
Max Wind Speed 16 mph    
Max Gust Speed 22 mph    
Visibility 10 miles    
Events      
Averages and records for this station are not official NWS values.
T = Trace of Precipitation, MM = Missing Value Source: NWS Daily Summary

Daily Weather History Graph

Daily Weather History Graph

Search for Another Location

Airport:

Trip Planner

Search our weather history database for the weather conditions in past years. The results will help you decide how hot, cold, wet, or windy it might be!

Date:

Astronomy

Jan. 29, 2012 Rise Set
Actual Time 7:30 AM EST 5:54 PM EST
Civil Twilight 7:03 AM EST 6:21 PM EST
Nautical Twilight 6:33 AM EST 6:52 PM EST
Astronomical Twilight 6:03 AM EST 7:21 PM EST
Moon 10:39 AM EST (1/29) No Moon Set
Length of Visible Light 11h 18m
Length of Day
10h 24m
Waxing Crescent, 36% of the Moon is Illuminated
Jan 29
Waxing Crescent
Jan 30
First Quarter
Feb 7
Full
Feb 14
Last Quarter
Feb 21
New

Hourly Weather History & Observations

Time (EST) Temp. Windchill Dew Point Humidity Pressure Visibility Wind Dir Wind Speed Gust Speed Precip Events Conditions
12:53 AM 37.9 °F 31.5 °F 19.9 °F 48% 30.26 in 10.0 mi NNE 9.2 mph - N/A   Clear
2:53 AM 36.0 °F 30.3 °F 15.1 °F 43% 30.28 in 10.0 mi North 6.9 mph - N/A   Clear
3:53 AM 34.0 °F 28.0 °F 15.1 °F 46% 30.29 in 10.0 mi NNE 6.9 mph - N/A   Clear
4:53 AM 36.0 °F 33.3 °F 12.9 °F 39% 30.30 in 10.0 mi NNW 3.5 mph - N/A   Clear
5:53 AM 32.0 °F - 16.0 °F 52% 30.32 in 10.0 mi Calm Calm - N/A   Clear
6:53 AM 32.0 °F 26.4 °F 16.0 °F 52% 30.35 in 10.0 mi North 5.8 mph - N/A   Clear
7:53 AM 34.0 °F 29.8 °F 15.1 °F 46% 30.38 in 10.0 mi North 4.6 mph - N/A   Clear
8:53 AM 34.0 °F - 19.9 °F 56% 30.39 in 10.0 mi Calm Calm - N/A   Clear
9:53 AM 41.0 °F - 14.0 °F 33% 30.40 in 10.0 mi Calm Calm - N/A   Clear
10:53 AM 45.0 °F 41.8 °F 15.1 °F 30% 30.41 in 10.0 mi SW 5.8 mph - N/A   Clear
11:53 AM 48.0 °F - 12.0 °F 24% 30.38 in 10.0 mi Variable 4.6 mph - N/A   Clear
12:53 PM 51.1 °F - 8.1 °F 18% 30.34 in 10.0 mi WSW 11.5 mph 19.6 mph N/A   Clear
1:53 PM 53.1 °F - 9.0 °F 17% 30.30 in 10.0 mi WSW 15.0 mph 19.6 mph N/A   Clear
2:53 PM 53.1 °F - 8.1 °F 16% 30.28 in 10.0 mi SW 11.5 mph 18.4 mph N/A   Clear
3:53 PM 55.0 °F - 7.0 °F 15% 30.27 in 10.0 mi SW 16.1 mph 19.6 mph N/A   Clear
4:53 PM 53.1 °F - 3.9 °F 14% 30.28 in 10.0 mi WSW 16.1 mph 21.9 mph N/A   Clear
5:53 PM 50.0 °F - 8.1 °F 18% 30.30 in 10.0 mi WSW 9.2 mph - N/A   Clear
6:53 PM 48.0 °F - 10.9 °F 22% 30.31 in 10.0 mi WSW 6.9 mph - N/A   Clear
7:53 PM 46.0 °F - 12.9 °F 26% 30.33 in 10.0 mi Calm Calm - N/A   Clear
9:53 PM 43.0 °F 38.2 °F 14.0 °F 31% 30.33 in 10.0 mi West 8.1 mph - N/A   Clear
10:53 PM 42.1 °F 37.7 °F 12.9 °F 31% 30.33 in 10.0 mi West 6.9 mph - N/A   Clear
11:53 PM 42.1 °F 40.2 °F 14.0 °F 32% 30.33 in 10.0 mi WSW 3.5 mph - N/A   Clear